Temp
6 7 8 8 8 8 6 7 5 6 4 0 -1 -1 -3 -4 -4 -4 -5 -6 -7 -7 -7 -7 -6 -6 -6 -6 -5 -4 -4 -2 -2 1 2 4 6 6 7 8 9 9 10 11
4 7 8 6 7 7 5 4 2 3 1 -1 -2 -3 -3 -4 -5 -5 -6 -7 -7 -7 -7 -7 -7 -6 -6 -6 -6 -5 -4 -3 -2 -1 1 1 1 1 3 4 5 6 7 9
6 8 6 5 4 4 3 3 3 3 1 -1 -1 -3 -5 -5 -6 -7 -7 -7 -8 -8 -8 -8 -7 -7 -6 -6 -5 -5 -5 -5 -3 -3 -1 -1 -0 0 0 0 1 2 2 4
6 6 6 2 3 3 3 2 3 2 0 -0 -2 -4 -5 -6 -7 -7 -8 -8 -9 -9 -9 -9 -8 -8 -7 -7 -4 -4 -4 -5 -4 -2 -3 -3 -3 -1 -1 -1 -1 -0 -1 -0
6 7 5 2 2 3 2 2 2 2 1 -0 -2 -3 -5 -7 -8 -9 -9 -10 -10 -10 -10 -8 -8 -7 -7 -6 -5 -5 -5 -4 -4 -4 -4 -4 -4 -5 -3 -3 -2 -2 -2 -2
6 7 7 5 5 4 5 3 3 3 2 1 -0 1 -3 -7 -8 -9 -9 -9 -8 -7 -7 -6 -6 -6 -4 -4 -4 -5 -6 -5 -5 -4 -3 -4 -4 -4 -4 -4 -4 -3 -3 -4
6 7 5 5 4 3 3 2 2 2 2 1 -0 -4 -7 -8 -9 -9 -8 -7 -7 -7 -7 -7 -6 -6 -6 -5 -5 -6 -5 -4 -4 -4 -4 -3 -3 -2 -3 -3 -3 -4 -4 -3
7 6 6 2 3 3 1 0 1 -1 -3 -5 -6 -7 -8 -9 -9 -9 -9 -8 -7 -7 -7 -7 -6 -6 -6 -6 -7 -5 -5 -4 -4 -4 -4 -4 -3 -3 -3 -2 -2 -3 -4 -5
4 3 -0 -1 0 -0 -0 -1 -2 -4 -5 -6 -7 -7 -8 -8 -8 -9 -9 -9 -8 -7 -7 -7 -7 -7 -7 -7 -7 -6 -5 -5 -5 -5 -5 -4 -4 -4 -4 -4 -4 -5 -4 -5
3 0 -1 -2 -1 -1 -1 -3 -3 -4 -5 -6 -7 -8 -8 -8 -8 -9 -9 -9 -10 -9 -8 -7 -8 -8 -8 -7 -7 -7 -7 -8 -8 -7 -8 -6 -6 -6 -5 -5 -5 -6 -7 -7
0 -1 -2 -3 -3 -3 -4 -5 -5 -6 -6 -7 -7 -8 -8 -9 -9 -9 -9 -9 -9 -9 -10 -10 -9 -9 -8 -8 -8 -10 -10 -9 -10 -10 -10 -11 -10 -10 -10 -10 -9 -9 -9 -9
3 -0 0 -2 -4 -5 -5 -6 -6 -6 -7 -7 -7 -8 -7 -7 -7 -7 -7 -8 -8 -9 -9 -10 -10 -10 -10 -9 -10 -10 -10 -10 -10 -10 -10 -11 -11 -11 -12 -12 -11 -10 -10 -10
-0 -1 -2 -5 -5 -5 -5 -5 -5 -6 -6 -6 -6 -5 -5 -6 -8 -9 -8 -9 -9 -10 -10 -10 -9 -7 -9 -10 -10 -11 -11 -11 -11 -11 -11 -11 -11 -11 -11 -12 -12 -12 -10 -10
-2 -3 -4 -5 -5 -5 -5 -5 -5 -5 -5 -5 -5 -6 -7 -8 -8 -9 -10 -10 -10 -10 -9 -9 -8 -8 -9 -11 -10 -9 -10 -12 -11 -12 -12 -12 -12 -12 -12 -12 -12 -13 -13 -11
-3 -1 -3 -4 -5 -5 -5 -5 -5 -5 -5 -6 -6 -7 -8 -9 -8 -7 -7 -8 -8 -8 -8 -8 -9 -9 -9 -10 -13 -13 -12 -12 -13 -12 -13 -13 -13 -13 -13 -13 -13 -13 -13 -14
-2 -2 -3 -4 -4 -5 -5 -5 -5 -5 -6 -7 -8 -9 -10 -9 -9 -8 -8 -8 -9 -8 -8 -8 -9 -9 -9 -9 -12 -13 -13 -13 -14 -13 -13 -13 -13 -13 -13 -13 -13 -14 -14 -16
-2 -2 -3 -3 -4 -4 -4 -4 -5 -6 -7 -7 -9 -9 -8 -7 -8 -8 -8 -8 -8 -9 -9 -9 -9 -10 -10 -10 -12 -14 -13 -14 -14 -14 -14 -14 -14 -14 -14 -14 -14 -14 -14 -15
-2 -3 -3 -3 -4 -4 -4 -5 -5 -6 -7 -9 -7 -7 -7 -8 -9 -9 -9 -9 -9 -9 -9 -10 -10 -10 -11 -11 -12 -14 -14 -14 -14 -14 -14 -15 -15 -15 -15 -15 -15 -15 -15 -16
-2 -3 -3 -4 -4 -5 -5 -6 -7 -8 -8 -7 -7 -7 -8 -8 -9 -9 -9 -10 -10 -12 -11 -11 -11 -11 -12 -12 -13 -14 -14 -14 -14 -14 -15 -15 -15 -15 -15 -16 -16 -16 -16 -17
-4 -4 -4 -5 -5 -6 -7 -8 -7 -6 -7 -7 -7 -7 -8 -8 -8 -9 -10 -10 -11 -11 -11 -11 -12 -14 -14 -15 -15 -15 -15 -15 -15 -15 -15 -15 -15 -16 -16 -16 -16 -17 -17 -17
-5 -6 -6 -6 -7 -7 -6 -6 -6 -6 -7 -7 -7 -8 -8 -8 -9 -10 -10 -11 -11 -11 -12 -12 -13 -15 -15 -15 -16 -15 -15 -15 -15 -15 -15 -15 -16 -16 -16 -16 -16 -17 -17 -17
-6 -6 -6 -7 -7 -7 -7 -7 -7 -7 -7 -7 -8 -8 -8 -9 -10 -10 -11 -11 -13 -13 -13 -14 -14 -15 -15 -15 -16 -16 -16 -16 -16 -16 -16 -16 -16 -17 -17 -17 -17 -17 -17 -18
-5 -5 -6 -6 -6 -6 -7 -7 -7 -7 -7 -8 -8 -8 -9 -11 -11 -11 -11 -11 -13 -14 -14 -14 -15 -15 -15 -16 -16 -16 -16 -17 -17 -17 -17 -17 -18 -18 -17 -17 -18 -18 -18 -18
-5 -6 -6 -7 -6 -6 -7 -7 -8 -8 -8 -8 -9 -9 -10 -11 -12 -12 -13 -13 -13 -13 -15 -15 -15 -15 -16 -17 -17 -17 -18 -18 -18 -18 -18 -19 -19 -19 -19 -19 -19 -19 -19 -19
-5 -6 -6 -6 -7 -7 -7 -7 -8 -8 -9 -10 -10 -10 -10 -10 -12 -13 -14 -14 -14 -14 -15 -15 -16 -15 -17 -18 -18 -19 -19 -19 -19 -20 -20 -20 -20 -20 -20 -20 -21 -21 -21 -21
-5 -6 -6 -7 -8 -9 -8 -8 -10 -10 -11 -11 -12 -12 -12 -13 -14 -14 -14 -14 -15 -15 -16 -17 -17 -17 -19 -19 -20 -20 -20 -21 -21 -21 -22 -22 -22 -22 -22 -23 -23 -23 -23 -23
-7 -7 -8 -9 -9 -10 -9 -10 -10 -10 -11 -10 -11 -12 -13 -14 -14 -14 -15 -15 -16 -17 -17 -18 -19 -19 -20 -20 -21 -21 -22 -22 -23 -23 -24 -24 -24 -24 -25 -25 -25 -25 -25 -25
Height
1465 1463 1458 1456 1455 1455 1461 1457 1461 1455 1466 1481 1484 1486 1486 1485 1483 1478 1474 1469 1463 1456 1449 1442 1432 1423 1416 1407 1397 1388 1378 1369 1361 1355 1351 1352 1351 1351 1352 1353 1356 1358 1362 1365
1470 1456 1453 1454 1454 1455 1463 1466 1470 1470 1476 1484 1486 1487 1487 1486 1484 1480 1477 1472 1466 1460 1453 1445 1438 1431 1424 1414 1405 1395 1387 1377 1371 1367 1364 1363 1361 1361 1356 1359 1360 1361 1362 1367
1455 1447 1452 1454 1458 1461 1466 1468 1468 1464 1474 1483 1486 1489 1490 1488 1486 1483 1481 1476 1470 1463 1457 1451 1445 1438 1431 1423 1414 1404 1396 1391 1384 1378 1370 1373 1375 1373 1369 1370 1372 1369 1370 1371
1451 1453 1446 1463 1464 1463 1466 1469 1469 1473 1478 1482 1487 1491 1492 1490 1488 1486 1483 1479 1474 1469 1463 1457 1452 1444 1440 1432 1423 1414 1407 1401 1395 1388 1389 1386 1385 1382 1381 1383 1383 1378 1377 1375
1451 1435 1451 1461 1463 1463 1465 1469 1471 1473 1479 1483 1487 1488 1491 1492 1490 1488 1485 1482 1477 1472 1467 1460 1454 1451 1444 1438 1433 1426 1420 1415 1411 1409 1405 1400 1395 1393 1390 1395 1386 1382 1389 1383
1445 1435 1426 1444 1453 1458 1460 1460 1469 1470 1476 1480 1483 1476 1491 1493 1492 1490 1487 1484 1480 1475 1471 1466 1460 1457 1450 1445 1440 1434 1431 1429 1426 1422 1419 1416 1412 1407 1403 1401 1395 1390 1394 1400
1444 1436 1444 1452 1458 1461 1456 1462 1467 1470 1474 1477 1481 1488 1491 1493 1493 1492 1489 1486 1484 1480 1475 1470 1467 1462 1456 1452 1446 1444 1442 1439 1434 1431 1427 1424 1420 1416 1413 1410 1408 1409 1405 1401
1435 1432 1432 1460 1460 1457 1463 1465 1468 1472 1477 1480 1485 1489 1492 1494 1494 1493 1492 1490 1487 1483 1479 1476 1472 1467 1462 1458 1456 1452 1449 1444 1441 1438 1434 1431 1428 1426 1424 1421 1420 1419 1416 1417
1445 1449 1462 1463 1461 1463 1465 1467 1472 1475 1479 1483 1487 1491 1494 1496 1496 1495 1492 1491 1489 1486 1483 1480 1476 1473 1469 1465 1462 1459 1454 1450 1446 1444 1441 1438 1435 1432 1429 1428 1427 1425 1425 1424
1452 1461 1464 1465 1465 1466 1469 1471 1474 1478 1481 1485 1488 1492 1494 1497 1497 1496 1495 1494 1493 1490 1486 1483 1481 1478 1475 1472 1467 1464 1460 1456 1453 1449 1447 1445 1442 1439 1437 1434 1433 1431 1430 1429
1457 1462 1465 1467 1468 1469 1471 1474 1477 1480 1483 1486 1489 1493 1494 1496 1497 1497 1497 1496 1495 1493 1491 1488 1485 1482 1479 1475 1472 1469 1466 1463 1461 1458 1455 1452 1447 1446 1443 1442 1440 1438 1436 1435
1441 1450 1455 1462 1468 1470 1472 1476 1479 1481 1485 1489 1491 1493 1496 1498 1500 1501 1501 1500 1499 1497 1495 1493 1489 1486 1483 1479 1476 1473 1471 1468 1464 1463 1461 1458 1457 1457 1452 1448 1445 1444 1442 1440
1450 1453 1456 1462 1467 1471 1474 1477 1480 1483 1486 1489 1493 1496 1497 1499 1500 1500 1501 1501 1500 1498 1497 1493 1491 1488 1485 1483 1480 1477 1475 1474 1472 1469 1467 1465 1463 1461 1459 1457 1453 1449 1446 1443
1452 1454 1461 1464 1467 1472 1476 1479 1482 1485 1488 1491 1494 1496 1497 1498 1499 1500 1500 1499 1499 1498 1497 1495 1494 1491 1487 1485 1482 1480 1478 1477 1477 1475 1473 1472 1469 1467 1465 1461 1458 1455 1451 1446
1454 1454 1457 1463 1468 1473 1477 1480 1483 1485 1489 1492 1494 1496 1498 1498 1498 1498 1499 1499 1499 1499 1498 1496 1494 1491 1489 1487 1487 1484 1482 1480 1480 1478 1476 1474 1472 1470 1468 1464 1462 1459 1456 1450
1454 1456 1459 1464 1467 1471 1476 1480 1482 1485 1489 1492 1494 1496 1497 1498 1499 1499 1500 1500 1500 1499 1498 1497 1495 1493 1491 1489 1488 1488 1486 1483 1481 1480 1478 1475 1474 1472 1468 1467 1465 1461 1458 1452
1454 1457 1460 1464 1467 1471 1476 1479 1482 1485 1489 1492 1494 1495 1497 1498 1500 1501 1501 1501 1500 1500 1499 1497 1496 1494 1492 1491 1489 1489 1488 1486 1483 1481 1479 1476 1474 1473 1471 1468 1465 1462 1459 1454
1455 1458 1461 1464 1468 1471 1475 1479 1482 1485 1488 1490 1491 1495 1497 1498 1500 1502 1501 1501 1501 1500 1499 1498 1496 1495 1494 1492 1490 1490 1489 1487 1484 1482 1480 1477 1475 1473 1470 1467 1464 1462 1459 1456
1455 1458 1461 1465 1469 1472 1476 1478 1481 1484 1486 1489 1492 1494 1497 1498 1500 1502 1502 1502 1501 1501 1500 1498 1497 1496 1494 1493 1491 1492 1491 1488 1486 1483 1481 1478 1476 1473 1470 1467 1464 1461 1458 1455
1456 1460 1463 1466 1469 1472 1474 1476 1479 1483 1487 1490 1492 1494 1497 1498 1500 1502 1503 1502 1502 1501 1500 1498 1497 1496 1495 1495 1493 1493 1491 1488 1486 1483 1480 1478 1475 1472 1469 1466 1463 1460 1457 1454
1456 1460 1463 1465 1468 1470 1473 1477 1480 1484 1487 1489 1492 1495 1496 1498 1500 1502 1503 1505 1502 1501 1499 1498 1497 1497 1498 1495 1492 1492 1490 1487 1484 1481 1479 1476 1472 1470 1467 1463 1460 1458 1455 1452
1456 1459 1462 1465 1468 1471 1474 1478 1482 1485 1488 1490 1492 1495 1496 1498 1500 1501 1502 1503 1502 1500 1499 1500 1499 1496 1495 1492 1492 1490 1488 1485 1482 1479 1476 1473 1470 1466 1463 1460 1458 1455 1452 1449
1457 1459 1462 1465 1468 1471 1475 1479 1482 1485 1487 1490 1492 1494 1496 1499 1500 1502 1504 1500 1501 1499 1498 1499 1496 1495 1492 1490 1490 1488 1486 1483 1480 1477 1473 1470 1466 1463 1461 1458 1455 1452 1449 1446
1457 1460 1463 1465 1468 1472 1475 1478 1481 1484 1487 1489 1491 1493 1496 1497 1498 1500 1501 1499 1498 1497 1496 1495 1493 1492 1490 1489 1487 1485 1482 1479 1476 1473 1469 1466 1463 1460 1457 1454 1451 1449 1446 1443
1456 1459 1462 1465 1468 1472 1475 1478 1481 1483 1486 1489 1490 1492 1494 1495 1498 1498 1498 1497 1495 1495 1495 1493 1491 1489 1488 1486 1484 1481 1478 1475 1472 1468 1465 1462 1459 1456 1453 1450 1447 1444 1441 1439
1456 1459 1462 1466 1469 1471 1474 1477 1480 1483 1486 1488 1490 1491 1492 1493 1495 1496 1495 1494 1493 1493 1493 1490 1487 1484 1483 1482 1478 1476 1473 1470 1467 1463 1459 1457 1454 1451 1448 1445 1442 1439 1436 1433
1456 1459 1462 1467 1470 1472 1474 1478 1481 1483 1485 1488 1490 1490 1491 1492 1492 1494 1493 1492 1492 1490 1489 1487 1485 1482 1479 1476 1474 1471 1468 1465 1461 1457 1454 1451 1448 1445 1442 1438 1435 1433 1430 1428
Wind_Speed
15 16 15 13 12 12 11 15 10 7 2 4 6 7 10 12 15 19 22 24 26 27 30 32 37 40 39 38 40 41 42 43 46 35 26 20 20 20 20 20 21 22 22 23
11 16 15 15 15 13 9 8 5 2 4 5 7 7 10 13 16 19 21 23 25 27 28 32 35 37 36 39 42 43 45 45 46 46 42 37 30 26 26 27 25 22 21 18
7 3 4 7 9 8 3 3 5 9 8 8 7 9 11 12 15 17 19 21 24 26 28 30 33 33 34 39 41 44 46 47 46 46 45 46 40 37 37 33 30 29 26 22
5 4 8 4 4 4 5 4 7 11 10 10 11 11 11 12 13 15 17 19 20 22 24 26 28 29 29 32 41 45 46 47 47 46 45 45 45 45 44 43 40 39 36 34
4 9 6 8 7 7 7 6 6 11 12 14 14 15 15 12 12 13 14 15 17 18 21 25 28 31 30 34 37 43 45 45 44 44 43 43 44 45 44 41 44 43 41 41
5 7 3 9 11 6 6 6 11 11 13 14 12 3 5 6 9 11 14 16 19 22 24 26 28 29 33 35 37 41 40 39 38 39 39 39 38 41 40 41 42 42 40 36
12 8 4 6 7 6 5 5 12 11 11 12 5 6 13 8 9 10 14 18 19 22 25 27 28 29 32 33 35 33 33 34 35 36 36 36 35 36 35 36 36 36 37 36
10 6 5 3 7 4 6 12 14 14 14 20 18 15 12 9 9 9 11 15 19 22 24 24 25 27 30 32 30 30 32 32 35 35 35 36 35 34 34 33 33 32 32 31
5 4 5 4 9 12 12 16 16 18 17 19 18 15 12 10 8 8 11 12 15 19 21 23 25 26 26 27 28 28 29 32 32 32 35 35 35 35 36 35 34 32 31 29
6 6 6 7 8 12 15 18 18 18 18 17 18 14 12 9 8 8 9 11 11 13 18 21 23 24 26 24 25 27 28 29 30 32 30 32 34 34 34 34 33 32 30 30
4 7 9 8 12 15 18 18 18 16 16 17 16 14 12 10 8 8 9 10 11 13 15 17 19 21 22 24 25 24 26 27 26 24 27 25 31 33 33 33 31 29 27 24
1 18 5 19 16 18 19 18 17 18 17 14 14 14 12 10 8 7 8 8 10 12 12 14 15 17 20 21 21 22 21 22 25 22 23 23 22 20 27 31 30 28 26 25
4 17 11 20 19 17 18 18 17 17 16 17 14 13 11 11 9 9 8 8 9 10 11 12 14 16 17 19 19 20 20 19 19 20 20 21 20 20 19 19 22 26 25 24
17 22 20 21 19 19 19 18 17 16 15 14 14 12 11 10 9 8 7 8 8 9 10 11 12 15 17 18 20 20 19 18 17 17 17 17 17 17 17 18 20 20 22 23
19 1 18 19 23 20 18 19 19 17 16 15 13 12 10 10 9 8 8 8 8 8 9 10 12 15 16 16 15 16 17 17 14 14 15 15 15 15 16 16 17 17 19 21
9 17 21 24 23 21 20 19 18 18 16 15 13 11 10 9 8 7 7 7 6 7 8 10 12 14 14 15 14 13 13 17 14 13 14 15 14 15 16 16 16 16 18 20
19 20 22 22 23 23 21 18 17 18 17 15 14 13 11 10 8 7 6 6 5 6 8 10 11 13 14 14 14 12 12 13 15 14 14 14 14 14 15 15 15 16 16 21
10 15 18 20 21 21 19 18 18 18 17 16 16 14 11 11 8 6 5 4 4 6 9 10 10 11 13 14 13 12 12 13 13 14 14 14 15 14 14 15 15 15 16 16
11 16 17 18 19 18 18 18 18 19 19 17 15 13 11 10 8 5 4 3 5 9 9 9 9 10 12 14 13 11 13 14 14 14 14 15 14 15 15 16 16 16 17 16
15 15 17 17 17 19 21 22 22 19 18 17 15 13 11 8 6 4 2 2 3 4 6 7 8 10 13 12 15 10 13 14 14 15 15 16 16 17 16 17 17 17 16 16
18 19 21 23 22 22 20 20 20 20 18 15 13 12 10 8 6 4 2 3 8 6 7 8 10 6 8 12 12 12 13 15 15 16 17 17 18 18 18 18 18 18 18 17
19 21 21 21 21 20 20 21 19 18 17 16 14 12 9 8 6 3 1 4 4 7 7 5 6 11 14 16 10 12 14 15 16 17 17 18 19 19 20 20 20 20 19 19
16 17 18 20 20 21 22 20 19 16 15 14 12 11 9 6 4 1 4 9 4 8 6 7 14 16 15 14 11 13 14 16 17 18 17 18 19 20 20 20 20 20 20 19
17 18 18 20 20 21 22 21 18 16 14 13 12 11 8 5 2 2 3 9 9 9 7 10 13 15 17 11 12 14 15 16 17 17 18 19 17 19 19 18 19 19 19 20
18 19 19 20 21 21 19 19 17 15 14 12 11 10 8 7 8 6 5 5 7 5 6 15 17 15 10 12 13 15 15 16 16 17 17 17 18 18 18 19 19 20 20 20
18 18 18 19 18 17 19 18 13 13 13 11 8 7 7 6 5 3 4 4 4 4 5 10 13 15 11 11 14 14 15 15 15 16 16 16 16 16 17 17 18 17 18 18
16 17 18 16 15 15 16 15 13 13 12 10 9 8 7 5 5 4 4 5 4 6 7 9 10 14 16 16 12 13 13 13 15 16 15 15 16 15 17 17 18 17 17 18
Wind_Direction
274 279 276 273 264 248 252 260 268 324 9 83 62 36 32 15 8 12 7 3 2 1 3 5 14 20 24 38 44 47 51 54 57 58 65 73 92 102 118 132 142 146 159 172
285 267 254 255 252 247 250 232 273 228 145 111 95 68 38 23 15 16 6 3 3 5 9 11 15 19 22 38 44 51 54 56 62 62 60 62 64 78 98 102 108 116 126 145
257 323 279 251 188 209 158 173 275 229 114 138 113 73 41 27 24 18 10 8 9 9 11 13 14 22 22 34 48 52 55 57 61 65 67 66 66 65 68 69 78 81 83 92
279 202 236 95 89 165 141 104 131 115 132 124 114 98 67 43 35 26 16 15 14 14 13 19 21 29 29 35 48 54 55 56 57 60 64 67 68 69 69 66 65 66 64 64
257 232 122 167 176 168 192 161 159 140 140 138 143 127 67 46 44 37 29 24 22 23 22 34 35 33 41 45 48 53 54 55 58 61 62 64 63 64 68 65 64 63 65 61
287 254 257 112 140 158 171 191 183 169 162 166 178 216 92 54 52 45 45 42 42 46 46 49 49 46 50 50 51 51 51 54 57 59 61 60 62 64 64 63 62 60 62 62
238 258 111 103 135 159 232 111 159 174 162 173 148 66 122 102 75 59 55 53 54 54 53 51 51 51 51 49 50 50 52 53 54 56 56 56 57 56 57 58 61 59 57 53
228 246 203 144 154 231 118 131 146 125 111 111 121 117 113 106 87 71 60 55 53 54 53 53 51 51 51 50 47 51 51 52 53 51 53 53 53 56 56 54 54 52 52 51
3 42 94 72 92 118 134 134 135 130 128 128 125 121 120 107 91 67 58 53 46 49 50 50 50 48 48 48 46 47 50 49 48 48 47 48 49 47 48 47 46 46 44 41
192 131 129 128 125 130 132 125 128 130 131 133 129 131 122 111 95 75 59 53 46 41 41 44 47 44 46 44 47 43 44 44 40 42 37 42 43 42 42 42 40 38 35 34
93 135 140 143 142 136 132 129 129 129 134 135 136 135 129 115 96 78 61 52 50 46 43 37 39 38 39 40 40 41 34 36 38 34 38 35 22 25 31 35 34 35 35 29
43 167 221 161 156 149 141 140 139 135 134 137 139 134 126 111 102 91 78 66 55 49 46 40 37 37 33 36 34 34 34 29 34 29 30 31 33 28 13 15 18 24 25 25
150 153 137 149 149 152 148 147 142 142 141 138 136 134 130 126 120 101 88 76 64 54 47 42 41 41 41 34 37 38 34 32 26 27 26 23 22 22 18 16 12 4 10 13
138 127 132 151 154 155 151 147 141 139 139 138 140 136 132 128 113 107 91 82 75 64 56 47 42 40 39 34 30 34 35 30 26 21 22 19 18 15 12 9 6 4 357 359
154 187 158 152 150 152 154 151 147 145 144 144 142 139 141 142 140 126 110 96 79 65 55 46 41 38 35 38 26 23 23 27 27 19 15 16 13 9 6 5 2 358 354 349
156 145 149 154 155 156 159 158 154 154 154 151 145 145 145 143 135 122 106 97 87 61 50 41 38 34 31 29 36 22 16 7 24 16 12 11 9 3 1 359 356 355 354 341
158 159 160 162 163 163 167 165 164 158 156 157 155 155 153 151 139 131 119 100 76 59 46 37 33 29 26 23 35 17 14 7 11 13 8 5 3 358 354 351 349 348 346 338
169 174 171 168 166 165 165 162 160 158 160 165 167 164 159 151 154 151 129 101 76 55 38 30 25 23 22 19 27 15 8 5 3 3 359 356 356 351 348 345 344 340 337 335
163 166 168 167 168 166 164 161 160 164 177 172 165 165 166 158 154 149 127 92 50 35 14 14 14 16 10 17 21 6 357 354 355 351 347 347 343 342 342 339 336 335 332 332
154 160 161 161 163 165 167 176 176 173 171 171 170 169 168 163 165 165 156 74 47 5 358 357 358 2 3 353 8 1 341 341 340 337 331 333 330 331 330 328 327 325 325 325
158 160 164 171 175 181 182 176 175 175 174 172 174 173 170 166 172 178 91 34 307 333 335 337 4 358 350 320 348 325 330 332 331 327 326 324 322 322 320 319 318 318 318 318
171 176 179 180 178 173 172 173 177 178 177 176 174 177 169 169 181 193 172 164 313 318 342 343 324 302 323 329 335 326 326 326 326 326 323 321 320 318 317 315 314 312 310 309
172 174 174 175 175 173 172 175 176 179 180 179 177 173 155 169 161 131 313 284 294 295 331 304 285 307 321 338 327 327 323 323 321 319 319 318 317 315 313 311 310 310 310 309
178 177 177 179 179 178 177 176 177 178 180 181 182 180 177 182 233 241 253 272 270 287 298 270 301 315 324 329 319 316 318 320 320 315 317 319 316 315 314 312 309 308 308 309
185 183 185 182 180 179 182 179 179 182 180 180 186 191 203 216 170 233 253 266 287 303 305 297 301 309 325 321 312 318 316 318 315 318 317 313 314 312 310 309 308 304 306 307
188 188 186 182 177 178 181 180 177 179 172 174 179 187 207 210 214 232 278 284 287 297 266 285 304 317 320 317 319 317 319 321 320 317 318 320 316 315 312 310 310 311 309 307
179 184 177 166 171 173 177 170 173 173 170 176 194 201 196 205 215 211 237 262 274 293 303 302 311 309 315 322 324 322 324 321 316 319 322 320 317 317 311 310 309 308 307 304